Skip Page Navigation
NASA JPL Caltech
NASA Logo - Jet Propulsion Laboratory + View the NASA Portal
+ Center for Near-Earth Object Studies
JPL Home Earth Solar System Stars & Galaxies Technology
JPL Solar System Dynamics
BODIES ORBITS EPHEMERIDES TOOLS PHYSICAL DATA DISCOVERY FAQ SITE MAP
JPL Small-Body Database Browser
Search: [ help ]  
(2013 TD135)
Classification: Mars-crossing Asteroid          SPK-ID: 3651337
Ephemeris | Orbit Diagram | Orbital Elements | Mission Design | Physical Parameters | Close-Approach Data ]

[ show orbit diagram ]
Orbital Elements at Epoch 2459200.5 (2020-Dec-17.0) TDB
Reference: JPL 13 (heliocentric ecliptic J2000)
 Element Value Uncertainty (1-sigma)   Units 
e .5107154199253026 1.6162e-05  
a 2.751668798658899 0.00010312 au
q 1.346349112656467 6.0169e-06 au
i 11.96079806730612 0.00023844 deg
node 71.06898238428793 0.00019434 deg
peri 336.4913161461494 0.00038574 deg
M 198.7823534841961 0.031707 deg
tp 2459947.125368516412
(2023-Jan-02.62536852)
0.18881 TDB
period 1667.219057434633
4.56
0.093723
0.0002566
d
yr
n .2159284338759513 1.2138e-05 deg/d
Q 4.156988484661333 0.00015579 au
  Orbit Determination Parameters
   # obs. used (total)      86  
   data-arc span      80 days  
   first obs. used      2013-10-12  
   last obs. used      2013-12-31  
   planetary ephem.      DE441  
   SB-pert. ephem.      SB441-N16  
   condition code      5  
   norm. resid. RMS      .40454  
   source      ORB  
   producer      Otto Matic  
   solution date      2021-Apr-15 08:47:32  

Additional Information
 Earth MOID = .366648 au 
 Jupiter MOID = 1.27864 au 
 T_jup = 3.114 
[ show covariance matrix ]

Ephemeris | Orbit Diagram | Orbital Elements | Mission Design | Physical Parameters | Close-Approach Data ]

Physical Parameter Table
Parameter Symbol Value Units Sigma Reference Notes
absolute magnitude H 19.5   n/a E2013V04  

[ show close-approach data ]
Ephemeris | Orbit Diagram | Orbital Elements | Mission Design | Physical Parameters | Close-Approach Data ]
ABOUT SSD CREDITS/AWARDS PRIVACY/COPYRIGHT GLOSSARY LINKS
FirstGov 2021-Jun-25 02:16 UT
(server date/time)  
NASA Home Page
Site Manager:   Ryan S. Park
Webmaster  Alan B. Chamberlin